contact:dominique.lefevre@mio.osupytheas.fr, maurice.libes@osupytheas.fr, didier.mallarino@osupytheas.fr
Project:EMSO http://www.emso-fr.org/EMSO-France
Depth: 2436.0 m
Title:EMSO Ligure Ouest : Data MII capteur MICROCAT
DateTime_Computer,Latitude,Longitude,Temperature,Conductivity,Pressure,DateTime_Instrument
DateTime_Computer,Latitude,Longitude,degC,S m-1,dbar,DateTime_Instrument
2020-12-02T00:00:58Z,42.805,6.029,13.2980,4.59986,2470.18,2020-12-02T02:01:56Z
2020-12-02T00:04:01Z,42.805,6.029,13.2982,4.59985,2470.18,2020-12-02T02:04:59Z
2020-12-02T00:07:04Z,42.805,6.029,13.2981,4.59986,2470.171,2020-12-02T02:08:02Z
2020-12-02T00:10:07Z,42.805,6.029,13.2982,4.59986,2470.171,2020-12-02T02:11:05Z
2020-12-02T00:13:10Z,42.805,6.029,13.2982,4.59986,2470.171,2020-12-02T02:14:08Z
2020-12-02T00:16:13Z,42.805,6.029,13.2986,4.59986,2470.133,2020-12-02T02:17:11Z
2020-12-02T00:19:16Z,42.805,6.029,13.2979,4.59986,2470.133,2020-12-02T02:20:14Z
2020-12-02T00:22:20Z,42.805,6.029,13.2982,4.59985,2470.171,2020-12-02T02:23:17Z
2020-12-02T00:25:23Z,42.805,6.029,13.2983,4.59986,2470.133,2020-12-02T02:26:21Z
2020-12-02T00:28:26Z,42.805,6.029,13.2979,4.59986,2470.171,2020-12-02T02:29:24Z
2020-12-02T00:31:29Z,42.805,6.029,13.2980,4.59986,2470.156,2020-12-02T02:32:27Z
2020-12-02T00:34:32Z,42.805,6.029,13.2984,4.59985,2470.18,2020-12-02T02:35:30Z
2020-12-02T00:37:35Z,42.805,6.029,13.2984,4.59986,2470.147,2020-12-02T02:38:33Z
2020-12-02T00:40:38Z,42.805,6.029,13.2986,4.59986,2470.171,2020-12-02T02:41:36Z
2020-12-02T00:43:41Z,42.805,6.029,13.2981,4.59985,2470.171,2020-12-02T02:44:39Z
2020-12-02T00:46:45Z,42.805,6.029,13.2979,4.59985,2470.18,2020-12-02T02:47:42Z
2020-12-02T00:49:48Z,42.805,6.029,13.2982,4.59986,2470.11,2020-12-02T02:50:45Z
2020-12-02T00:52:51Z,42.805,6.029,13.2985,4.59986,2470.156,2020-12-02T02:53:49Z
2020-12-02T00:55:54Z,42.805,6.029,13.2980,4.59985,2470.171,2020-12-02T02:56:52Z
2020-12-02T00:58:57Z,42.805,6.029,13.2984,4.59986,2470.156,2020-12-02T02:59:55Z
2020-12-02T01:02:00Z,42.805,6.029,13.2983,4.59985,2470.11,2020-12-02T03:02:58Z
2020-12-02T01:05:03Z,42.805,6.029,13.2983,4.59984,2470.133,2020-12-02T03:06:01Z
2020-12-02T01:08:06Z,42.805,6.029,13.2984,4.59986,2470.133,2020-12-02T03:09:04Z
2020-12-02T01:11:09Z,42.805,6.029,13.2979,4.59985,2470.18,2020-12-02T03:12:07Z
2020-12-02T01:14:13Z,42.805,6.029,13.2981,4.59985,2470.147,2020-12-02T03:15:10Z
2020-12-02T01:17:16Z,42.805,6.029,13.2986,4.59985,2470.133,2020-12-02T03:18:14Z
2020-12-02T01:20:19Z,42.805,6.029,13.2983,4.59986,2470.133,2020-12-02T03:21:17Z
2020-12-02T01:23:22Z,42.805,6.029,13.2983,4.59985,2470.156,2020-12-02T03:24:20Z
2020-12-02T01:26:25Z,42.805,6.029,13.2983,4.59986,2470.156,2020-12-02T03:27:23Z
2020-12-02T01:29:28Z,42.805,6.029,13.2983,4.59984,2470.11,2020-12-02T03:30:26Z
2020-12-02T01:32:31Z,42.805,6.029,13.2982,4.59985,2470.147,2020-12-02T03:33:29Z
2020-12-02T01:35:34Z,42.805,6.029,13.2981,4.59985,2470.133,2020-12-02T03:36:32Z
2020-12-02T01:38:37Z,42.805,6.029,13.2979,4.59985,2470.147,2020-12-02T03:39:35Z
2020-12-02T01:41:41Z,42.805,6.029,13.2984,4.59985,2470.133,2020-12-02T03:42:38Z
2020-12-02T01:44:44Z,42.805,6.029,13.2982,4.59985,2470.156,2020-12-02T03:45:42Z
2020-12-02T01:47:47Z,42.805,6.029,13.2982,4.59986,2470.156,2020-12-02T03:48:45Z
2020-12-02T01:50:50Z,42.805,6.029,13.2981,4.59986,2470.133,2020-12-02T03:51:48Z
2020-12-02T01:53:53Z,42.805,6.029,13.2980,4.59984,2470.147,2020-12-02T03:54:51Z
2020-12-02T01:56:56Z,42.805,6.029,13.2983,4.59986,2470.11,2020-12-02T03:57:54Z
2020-12-02T01:59:59Z,42.805,6.029,13.2983,4.59985,2470.171,2020-12-02T04:00:57Z
2020-12-02T02:03:02Z,42.805,6.029,13.2982,4.59985,2470.147,2020-12-02T04:04:00Z
2020-12-02T02:06:06Z,42.805,6.029,13.2983,4.59985,2470.133,2020-12-02T04:07:03Z
2020-12-02T02:09:09Z,42.805,6.029,13.2984,4.59985,2470.156,2020-12-02T04:10:07Z
2020-12-02T02:12:12Z,42.805,6.029,13.2982,4.59985,2470.124,2020-12-02T04:13:10Z
2020-12-02T02:15:15Z,42.805,6.029,13.2982,4.59986,2470.147,2020-12-02T04:16:13Z
2020-12-02T02:18:18Z,42.805,6.029,13.2982,4.59985,2470.133,2020-12-02T04:19:16Z
2020-12-02T02:21:21Z,42.805,6.029,13.2985,4.59985,2470.11,2020-12-02T04:22:19Z
2020-12-02T02:24:24Z,42.805,6.029,13.2986,4.59985,2470.147,2020-12-02T04:25:22Z
2020-12-02T02:27:27Z,42.805,6.029,13.2983,4.59985,2470.124,2020-12-02T04:28:25Z
2020-12-02T02:30:31Z,42.805,6.029,13.2979,4.59985,2470.133,2020-12-02T04:31:28Z
2020-12-02T02:33:34Z,42.805,6.029,13.2983,4.59986,2470.156,2020-12-02T04:34:32Z
2020-12-02T02:36:37Z,42.805,6.029,13.2982,4.59984,2470.133,2020-12-02T04:37:35Z
2020-12-02T02:39:40Z,42.805,6.029,13.2983,4.59985,2470.11,2020-12-02T04:40:38Z
2020-12-02T02:42:43Z,42.805,6.029,13.2982,4.59985,2470.11,2020-12-02T04:43:41Z
2020-12-02T02:45:46Z,42.805,6.029,13.2979,4.59986,2470.147,2020-12-02T04:46:44Z
2020-12-02T02:48:49Z,42.805,6.029,13.2979,4.59984,2470.133,2020-12-02T04:49:47Z
2020-12-02T02:51:52Z,42.805,6.029,13.2984,4.59985,2470.124,2020-12-02T04:52:50Z
2020-12-02T02:54:55Z,42.805,6.029,13.2984,4.59984,2470.133,2020-12-02T04:55:53Z
2020-12-02T02:57:59Z,42.805,6.029,13.2981,4.59985,2470.171,2020-12-02T04:58:56Z
2020-12-02T03:01:02Z,42.805,6.029,13.2983,4.59986,2470.156,2020-12-02T05:02:00Z
2020-12-02T03:04:05Z,42.805,6.029,13.2984,4.59986,2470.11,2020-12-02T05:05:03Z
2020-12-02T03:07:08Z,42.805,6.029,13.2982,4.59986,2470.11,2020-12-02T05:08:06Z
2020-12-02T03:10:11Z,42.805,6.029,13.2985,4.59984,2470.156,2020-12-02T05:11:09Z
2020-12-02T03:13:14Z,42.805,6.029,13.2984,4.59986,2470.171,2020-12-02T05:14:12Z
2020-12-02T03:16:17Z,42.805,6.029,13.2984,4.59985,2470.147,2020-12-02T05:17:15Z
2020-12-02T03:19:20Z,42.805,6.029,13.2981,4.59984,2470.133,2020-12-02T05:20:18Z
2020-12-02T03:22:24Z,42.805,6.029,13.2979,4.59986,2470.133,2020-12-02T05:23:21Z
2020-12-02T03:25:27Z,42.805,6.029,13.2984,4.59986,2470.171,2020-12-02T05:26:24Z
2020-12-02T03:28:30Z,42.805,6.029,13.2982,4.59985,2470.156,2020-12-02T05:29:28Z
2020-12-02T03:31:33Z,42.805,6.029,13.2982,4.59985,2470.147,2020-12-02T05:32:31Z
2020-12-02T03:34:36Z,42.805,6.029,13.2983,4.59986,2470.133,2020-12-02T05:35:34Z
2020-12-02T03:37:39Z,42.805,6.029,13.2987,4.59985,2470.119,2020-12-02T05:38:37Z
2020-12-02T03:40:42Z,42.805,6.029,13.2980,4.59986,2470.156,2020-12-02T05:41:40Z
2020-12-02T03:43:45Z,42.805,6.029,13.2983,4.59986,2470.18,2020-12-02T05:44:43Z
2020-12-02T03:46:48Z,42.805,6.029,13.2986,4.59986,2470.18,2020-12-02T05:47:46Z
2020-12-02T03:49:52Z,42.805,6.029,13.2979,4.59985,2470.156,2020-12-02T05:50:49Z
2020-12-02T03:52:55Z,42.805,6.029,13.2982,4.59985,2470.166,2020-12-02T05:53:53Z
2020-12-02T03:55:58Z,42.805,6.029,13.2979,4.59986,2470.156,2020-12-02T05:56:56Z
2020-12-02T03:59:01Z,42.805,6.029,13.2982,4.59985,2470.18,2020-12-02T05:59:59Z
2020-12-02T04:02:04Z,42.805,6.029,13.2982,4.59985,2470.18,2020-12-02T06:03:02Z
2020-12-02T04:05:07Z,42.805,6.029,13.2985,4.59985,2470.203,2020-12-02T06:06:05Z
2020-12-02T04:08:10Z,42.805,6.029,13.2982,4.59986,2470.156,2020-12-02T06:09:08Z
2020-12-02T04:11:13Z,42.805,6.029,13.2983,4.59985,2470.189,2020-12-02T06:12:11Z
2020-12-02T04:14:16Z,42.805,6.029,13.2983,4.59985,2470.18,2020-12-02T06:15:14Z
2020-12-02T04:17:20Z,42.805,6.029,13.2982,4.59986,2470.18,2020-12-02T06:18:17Z
2020-12-02T04:20:23Z,42.805,6.029,13.2980,4.59986,2470.18,2020-12-02T06:21:21Z
2020-12-02T04:23:26Z,42.805,6.029,13.2982,4.59986,2470.18,2020-12-02T06:24:24Z
2020-12-02T04:26:29Z,42.805,6.029,13.2983,4.59986,2470.194,2020-12-02T06:27:27Z
2020-12-02T04:29:32Z,42.805,6.029,13.2983,4.59985,2470.18,2020-12-02T06:30:30Z
2020-12-02T04:32:35Z,42.805,6.029,13.2982,4.59985,2470.203,2020-12-02T06:33:33Z
2020-12-02T04:35:38Z,42.805,6.029,13.2983,4.59986,2470.171,2020-12-02T06:36:36Z
2020-12-02T04:38:41Z,42.805,6.029,13.2982,4.59986,2470.227,2020-12-02T06:39:39Z
2020-12-02T04:41:45Z,42.805,6.029,13.2979,4.59986,2470.217,2020-12-02T06:42:42Z
2020-12-02T04:44:48Z,42.805,6.029,13.2983,4.59986,2470.203,2020-12-02T06:45:45Z
2020-12-02T04:47:51Z,42.805,6.029,13.2984,4.59985,2470.203,2020-12-02T06:48:49Z
2020-12-02T04:50:54Z,42.805,6.029,13.2982,4.59986,2470.24,2020-12-02T06:51:52Z
2020-12-02T04:53:57Z,42.805,6.029,13.2980,4.59986,2470.203,2020-12-02T06:54:55Z
2020-12-02T04:57:00Z,42.805,6.029,13.2983,4.59985,2470.227,2020-12-02T06:57:58Z
2020-12-02T05:00:03Z,42.805,6.029,13.2983,4.59986,2470.203,2020-12-02T07:01:01Z
2020-12-02T05:03:06Z,42.805,6.029,13.2985,4.59986,2470.24,2020-12-02T07:04:04Z
2020-12-02T05:06:09Z,42.805,6.029,13.2982,4.59986,2470.24,2020-12-02T07:07:07Z
2020-12-02T05:09:13Z,42.805,6.029,13.2984,4.59985,2470.227,2020-12-02T07:10:10Z
2020-12-02T05:12:16Z,42.805,6.029,13.2985,4.59986,2470.264,2020-12-02T07:13:14Z
2020-12-02T05:15:19Z,42.805,6.029,13.2982,4.59986,2470.25,2020-12-02T07:16:17Z
2020-12-02T05:18:22Z,42.805,6.029,13.2983,4.59986,2470.227,2020-12-02T07:19:20Z
2020-12-02T05:21:25Z,42.805,6.029,13.2983,4.59986,2470.236,2020-12-02T07:22:23Z
2020-12-02T05:24:28Z,42.805,6.029,13.2987,4.59987,2470.287,2020-12-02T07:25:26Z
2020-12-02T05:27:31Z,42.805,6.029,13.2981,4.59988,2470.26,2020-12-02T07:28:29Z
2020-12-02T05:30:34Z,42.805,6.029,13.2982,4.59988,2470.273,2020-12-02T07:31:32Z
2020-12-02T05:33:37Z,42.805,6.029,13.2982,4.59986,2470.25,2020-12-02T07:34:35Z
2020-12-02T05:36:41Z,42.805,6.029,13.2984,4.59986,2470.24,2020-12-02T07:37:38Z
2020-12-02T05:39:44Z,42.805,6.029,13.2983,4.59988,2470.297,2020-12-02T07:40:42Z
2020-12-02T05:42:47Z,42.805,6.029,13.2983,4.59986,2470.273,2020-12-02T07:43:45Z
2020-12-02T05:45:50Z,42.805,6.029,13.2982,4.59986,2470.297,2020-12-02T07:46:48Z
2020-12-02T05:48:53Z,42.805,6.029,13.2982,4.59986,2470.297,2020-12-02T07:49:51Z
2020-12-02T05:51:56Z,42.805,6.029,13.2981,4.59986,2470.297,2020-12-02T07:52:54Z
2020-12-02T05:54:59Z,42.805,6.029,13.2982,4.59986,2470.273,2020-12-02T07:55:57Z
2020-12-02T05:58:02Z,42.805,6.029,13.2983,4.59986,2470.297,2020-12-02T07:59:00Z
2020-12-02T06:01:06Z,42.805,6.029,13.2986,4.59987,2470.297,2020-12-02T08:02:03Z
2020-12-02T06:04:09Z,42.805,6.029,13.2983,4.59986,2470.32,2020-12-02T08:05:07Z
2020-12-02T06:07:12Z,42.805,6.029,13.2982,4.59986,2470.297,2020-12-02T08:08:10Z
2020-12-02T06:10:15Z,42.805,6.029,13.2983,4.59987,2470.31,2020-12-02T08:11:13Z
2020-12-02T06:13:18Z,42.805,6.029,13.2982,4.59987,2470.297,2020-12-02T08:14:16Z
2020-12-02T06:16:21Z,42.805,6.029,13.2983,4.59987,2470.32,2020-12-02T08:17:19Z
2020-12-02T06:19:24Z,42.805,6.029,13.2983,4.59988,2470.31,2020-12-02T08:20:22Z
2020-12-02T06:22:27Z,42.805,6.029,13.2982,4.59988,2470.297,2020-12-02T08:23:25Z
2020-12-02T06:25:30Z,42.805,6.029,13.2982,4.59988,2470.32,2020-12-02T08:26:28Z
2020-12-02T06:28:34Z,42.805,6.029,13.2985,4.59987,2470.32,2020-12-02T08:29:31Z
2020-12-02T06:31:37Z,42.805,6.029,13.2982,4.59987,2470.32,2020-12-02T08:32:35Z
2020-12-02T06:34:40Z,42.805,6.029,13.2985,4.59986,2470.32,2020-12-02T08:35:38Z
2020-12-02T06:37:43Z,42.805,6.029,13.2982,4.59988,2470.297,2020-12-02T08:38:41Z
2020-12-02T06:40:46Z,42.805,6.029,13.2983,4.59987,2470.32,2020-12-02T08:41:44Z
2020-12-02T06:43:49Z,42.805,6.029,13.2982,4.59986,2470.32,2020-12-02T08:44:47Z
2020-12-02T06:46:52Z,42.805,6.029,13.2979,4.59987,2470.343,2020-12-02T08:47:50Z
2020-12-02T06:49:55Z,42.805,6.029,13.2978,4.59986,2470.334,2020-12-02T08:50:53Z
2020-12-02T06:52:59Z,42.805,6.029,13.2981,4.59988,2470.32,2020-12-02T08:53:56Z
2020-12-02T06:56:02Z,42.805,6.029,13.2985,4.59987,2470.32,2020-12-02T08:57:00Z
2020-12-02T06:59:05Z,42.805,6.029,13.2985,4.59987,2470.366,2020-12-02T09:00:03Z
2020-12-02T07:02:08Z,42.805,6.029,13.2986,4.59987,2470.343,2020-12-02T09:03:06Z
2020-12-02T07:05:11Z,42.805,6.029,13.2982,4.59987,2470.297,2020-12-02T09:06:09Z
2020-12-02T07:08:14Z,42.805,6.029,13.2985,4.59987,2470.343,2020-12-02T09:09:12Z
2020-12-02T07:11:17Z,42.805,6.029,13.2983,4.59987,2470.343,2020-12-02T09:12:15Z
2020-12-02T07:14:20Z,42.805,6.029,13.2982,4.59987,2470.366,2020-12-02T09:15:18Z
2020-12-02T07:17:23Z,42.805,6.029,13.2985,4.59988,2470.39,2020-12-02T09:18:21Z
2020-12-02T07:20:27Z,42.805,6.029,13.2985,4.59987,2470.366,2020-12-02T09:21:24Z
2020-12-02T07:23:30Z,42.805,6.029,13.2986,4.59987,2470.366,2020-12-02T09:24:28Z
2020-12-02T07:26:33Z,42.805,6.029,13.2986,4.59987,2470.343,2020-12-02T09:27:31Z
2020-12-02T07:29:36Z,42.805,6.029,13.2985,4.59987,2470.343,2020-12-02T09:30:34Z
2020-12-02T07:32:39Z,42.805,6.029,13.2983,4.59988,2470.404,2020-12-02T09:33:37Z
2020-12-02T07:35:42Z,42.805,6.029,13.2987,4.59987,2470.404,2020-12-02T09:36:40Z
2020-12-02T07:38:45Z,42.805,6.029,13.2984,4.59988,2470.357,2020-12-02T09:39:43Z
2020-12-02T07:41:48Z,42.805,6.029,13.2983,4.59988,2470.366,2020-12-02T09:42:46Z
2020-12-02T07:44:52Z,42.805,6.029,13.2983,4.59987,2470.343,2020-12-02T09:45:49Z
2020-12-02T07:47:55Z,42.805,6.029,13.2984,4.59988,2470.39,2020-12-02T09:48:53Z
2020-12-02T07:50:58Z,42.805,6.029,13.2982,4.59987,2470.334,2020-12-02T09:51:56Z
2020-12-02T07:54:01Z,42.805,6.029,13.2983,4.59989,2470.366,2020-12-02T09:54:59Z
2020-12-02T07:57:04Z,42.805,6.029,13.2983,4.59988,2470.39,2020-12-02T09:58:02Z
2020-12-02T08:00:07Z,42.805,6.029,13.2984,4.59987,2470.343,2020-12-02T10:01:05Z
2020-12-02T08:03:10Z,42.805,6.029,13.2983,4.59988,2470.404,2020-12-02T10:04:08Z
2020-12-02T08:06:13Z,42.805,6.029,13.2983,4.59987,2470.357,2020-12-02T10:07:11Z
2020-12-02T08:09:16Z,42.805,6.029,13.2981,4.59987,2470.366,2020-12-02T10:10:14Z
2020-12-02T08:12:20Z,42.805,6.029,13.2983,4.59987,2470.38,2020-12-02T10:13:17Z
2020-12-02T08:15:23Z,42.805,6.029,13.2986,4.59987,2470.39,2020-12-02T10:16:21Z
2020-12-02T08:18:26Z,42.805,6.029,13.2983,4.59988,2470.413,2020-12-02T10:19:24Z
2020-12-02T08:21:29Z,42.805,6.029,13.2981,4.59988,2470.38,2020-12-02T10:22:27Z
2020-12-02T08:24:32Z,42.805,6.029,13.2983,4.59988,2470.404,2020-12-02T10:25:30Z
2020-12-02T08:27:35Z,42.805,6.029,13.2986,4.59988,2470.38,2020-12-02T10:28:33Z
2020-12-02T08:30:38Z,42.805,6.029,13.2986,4.59988,2470.38,2020-12-02T10:31:36Z
2020-12-02T08:33:41Z,42.805,6.029,13.2982,4.59988,2470.366,2020-12-02T10:34:39Z
2020-12-02T08:36:45Z,42.805,6.029,13.2986,4.59987,2470.38,2020-12-02T10:37:42Z
2020-12-02T08:39:48Z,42.805,6.029,13.2983,4.59988,2470.366,2020-12-02T10:40:46Z
2020-12-02T08:42:51Z,42.805,6.029,13.2986,4.59987,2470.38,2020-12-02T10:43:49Z
2020-12-02T08:45:54Z,42.805,6.029,13.2983,4.59988,2470.366,2020-12-02T10:46:52Z
2020-12-02T08:48:57Z,42.805,6.029,13.2981,4.59988,2470.366,2020-12-02T10:49:55Z
2020-12-02T08:52:00Z,42.805,6.029,13.2984,4.59988,2470.404,2020-12-02T10:52:58Z
2020-12-02T08:55:03Z,42.805,6.029,13.2982,4.59988,2470.357,2020-12-02T10:56:01Z
2020-12-02T08:58:06Z,42.805,6.029,13.2981,4.59988,2470.366,2020-12-02T10:59:04Z
2020-12-02T09:01:10Z,42.805,6.029,13.2985,4.59988,2470.38,2020-12-02T11:02:07Z
2020-12-02T09:04:13Z,42.805,6.029,13.2986,4.59987,2470.366,2020-12-02T11:05:11Z
2020-12-02T09:07:16Z,42.805,6.029,13.2986,4.59988,2470.343,2020-12-02T11:08:14Z
2020-12-02T09:10:19Z,42.805,6.029,13.2983,4.59987,2470.32,2020-12-02T11:11:17Z
2020-12-02T09:13:22Z,42.805,6.029,13.2983,4.59987,2470.39,2020-12-02T11:14:20Z
2020-12-02T09:16:25Z,42.805,6.029,13.2980,4.59987,2470.366,2020-12-02T11:17:23Z
2020-12-02T09:19:28Z,42.805,6.029,13.2985,4.59988,2470.366,2020-12-02T11:20:26Z
2020-12-02T09:22:31Z,42.805,6.029,13.2988,4.59987,2470.343,2020-12-02T11:23:29Z
2020-12-02T09:25:35Z,42.805,6.029,13.2984,4.59987,2470.404,2020-12-02T11:26:32Z
2020-12-02T09:28:38Z,42.805,6.029,13.2984,4.59987,2470.366,2020-12-02T11:29:36Z
2020-12-02T09:31:41Z,42.805,6.029,13.2982,4.59988,2470.32,2020-12-02T11:32:39Z
2020-12-02T09:34:44Z,42.805,6.029,13.2983,4.59988,2470.343,2020-12-02T11:35:42Z
2020-12-02T09:37:47Z,42.805,6.029,13.2983,4.59988,2470.38,2020-12-02T11:38:45Z
2020-12-02T09:40:50Z,42.805,6.029,13.2983,4.59988,2470.343,2020-12-02T11:41:48Z
2020-12-02T09:43:53Z,42.805,6.029,13.2983,4.59988,2470.39,2020-12-02T11:44:51Z
2020-12-02T09:46:56Z,42.805,6.029,13.2981,4.59988,2470.343,2020-12-02T11:47:54Z
2020-12-02T09:49:59Z,42.805,6.029,13.2982,4.59988,2470.343,2020-12-02T11:50:57Z
2020-12-02T09:53:03Z,42.805,6.029,13.2983,4.59987,2470.38,2020-12-02T11:54:00Z
2020-12-02T09:56:06Z,42.805,6.029,13.2983,4.59988,2470.38,2020-12-02T11:57:04Z
2020-12-02T09:59:09Z,42.805,6.029,13.2982,4.59987,2470.366,2020-12-02T12:00:07Z
2020-12-02T10:02:12Z,42.805,6.029,13.2983,4.59987,2470.357,2020-12-02T12:03:10Z
2020-12-02T10:05:15Z,42.805,6.029,13.2986,4.59988,2470.366,2020-12-02T12:06:13Z
2020-12-02T10:08:18Z,42.805,6.029,13.2980,4.59989,2470.366,2020-12-02T12:09:16Z
2020-12-02T10:11:21Z,42.805,6.029,13.2982,4.59990,2470.343,2020-12-02T12:12:19Z
2020-12-02T10:14:24Z,42.805,6.029,13.2982,4.59986,2470.343,2020-12-02T12:15:22Z
2020-12-02T10:17:28Z,42.805,6.029,13.2983,4.59987,2470.343,2020-12-02T12:18:25Z
2020-12-02T10:20:31Z,42.805,6.029,13.2989,4.59987,2470.366,2020-12-02T12:21:29Z
2020-12-02T10:23:34Z,42.805,6.029,13.2984,4.59988,2470.343,2020-12-02T12:24:32Z
2020-12-02T10:26:37Z,42.805,6.029,13.2982,4.59988,2470.343,2020-12-02T12:27:35Z
2020-12-02T10:29:40Z,42.805,6.029,13.2983,4.59988,2470.357,2020-12-02T12:30:38Z
2020-12-02T10:32:43Z,42.805,6.029,13.2986,4.59987,2470.343,2020-12-02T12:33:41Z
2020-12-02T10:35:46Z,42.805,6.029,13.2982,4.59988,2470.343,2020-12-02T12:36:44Z
2020-12-02T10:38:49Z,42.805,6.029,13.2984,4.59988,2470.32,2020-12-02T12:39:47Z
2020-12-02T10:41:53Z,42.805,6.029,13.2981,4.59988,2470.343,2020-12-02T12:42:50Z
2020-12-02T10:44:56Z,42.805,6.029,13.2983,4.59987,2470.32,2020-12-02T12:45:54Z
2020-12-02T10:47:59Z,42.805,6.029,13.2983,4.59987,2470.32,2020-12-02T12:48:57Z
2020-12-02T10:51:02Z,42.805,6.029,13.2983,4.59988,2470.357,2020-12-02T12:52:00Z
2020-12-02T10:54:05Z,42.805,6.029,13.2983,4.59986,2470.366,2020-12-02T12:55:03Z
2020-12-02T10:57:08Z,42.805,6.029,13.2982,4.59987,2470.334,2020-12-02T12:58:06Z
2020-12-02T11:00:11Z,42.805,6.029,13.2985,4.59988,2470.32,2020-12-02T13:01:09Z
2020-12-02T11:03:14Z,42.805,6.029,13.2986,4.59989,2470.334,2020-12-02T13:04:12Z
2020-12-02T11:06:18Z,42.805,6.029,13.2986,4.59988,2470.32,2020-12-02T13:07:15Z
2020-12-02T11:09:21Z,42.805,6.029,13.2987,4.59988,2470.357,2020-12-02T13:10:19Z
2020-12-02T11:12:24Z,42.805,6.029,13.2984,4.59987,2470.343,2020-12-02T13:13:22Z
2020-12-02T11:15:27Z,42.805,6.029,13.2982,4.59988,2470.297,2020-12-02T13:16:25Z
2020-12-02T11:18:30Z,42.805,6.029,13.2986,4.59988,2470.297,2020-12-02T13:19:28Z
2020-12-02T11:21:33Z,42.805,6.029,13.2986,4.59988,2470.32,2020-12-02T13:22:31Z
2020-12-02T11:24:36Z,42.805,6.029,13.2986,4.59988,2470.334,2020-12-02T13:25:34Z
2020-12-02T11:27:39Z,42.805,6.029,13.2983,4.59988,2470.343,2020-12-02T13:28:37Z
2020-12-02T11:30:43Z,42.805,6.029,13.2984,4.59987,2470.297,2020-12-02T13:31:40Z
2020-12-02T11:33:46Z,42.805,6.029,13.2983,4.59988,2470.31,2020-12-02T13:34:43Z
2020-12-02T11:36:49Z,42.805,6.029,13.2981,4.59988,2470.343,2020-12-02T13:37:47Z
2020-12-02T11:39:52Z,42.805,6.029,13.2982,4.59988,2470.297,2020-12-02T13:40:50Z
2020-12-02T11:42:55Z,42.805,6.029,13.2984,4.59988,2470.31,2020-12-02T13:43:53Z
2020-12-02T11:45:58Z,42.805,6.029,13.2984,4.59988,2470.297,2020-12-02T13:46:56Z
2020-12-02T11:49:01Z,42.805,6.029,13.2982,4.59988,2470.31,2020-12-02T13:49:59Z
2020-12-02T11:52:04Z,42.805,6.029,13.2982,4.59987,2470.297,2020-12-02T13:53:02Z
2020-12-02T11:55:07Z,42.805,6.029,13.2981,4.59988,2470.287,2020-12-02T13:56:05Z
2020-12-02T11:58:11Z,42.805,6.029,13.2983,4.59987,2470.334,2020-12-02T13:59:08Z
2020-12-02T12:01:14Z,42.805,6.029,13.2983,4.59989,2470.264,2020-12-02T14:02:12Z
2020-12-02T12:04:17Z,42.805,6.029,13.2982,4.59988,2470.31,2020-12-02T14:05:15Z
2020-12-02T12:07:20Z,42.805,6.029,13.2983,4.59987,2470.273,2020-12-02T14:08:18Z
2020-12-02T12:10:23Z,42.805,6.029,13.2983,4.59987,2470.287,2020-12-02T14:11:21Z
2020-12-02T12:13:26Z,42.805,6.029,13.2986,4.59988,2470.287,2020-12-02T14:14:24Z
2020-12-02T12:16:29Z,42.805,6.029,13.2982,4.59988,2470.25,2020-12-02T14:17:27Z
2020-12-02T12:19:32Z,42.805,6.029,13.2983,4.59987,2470.25,2020-12-02T14:20:30Z
2020-12-02T12:22:36Z,42.805,6.029,13.2979,4.59988,2470.297,2020-12-02T14:23:33Z
2020-12-02T12:25:39Z,42.805,6.029,13.2983,4.59988,2470.264,2020-12-02T14:26:37Z
2020-12-02T12:28:42Z,42.805,6.029,13.2986,4.59988,2470.273,2020-12-02T14:29:40Z
2020-12-02T12:31:45Z,42.805,6.029,13.2982,4.59987,2470.227,2020-12-02T14:32:43Z
2020-12-02T12:34:48Z,42.805,6.029,13.2980,4.59988,2470.273,2020-12-02T14:35:46Z
2020-12-02T12:37:51Z,42.805,6.029,13.2986,4.59988,2470.273,2020-12-02T14:38:49Z
2020-12-02T12:40:54Z,42.805,6.029,13.2984,4.59987,2470.31,2020-12-02T14:41:52Z
2020-12-02T12:43:57Z,42.805,6.029,13.2985,4.59987,2470.227,2020-12-02T14:44:55Z
2020-12-02T12:47:01Z,42.805,6.029,13.2982,4.59988,2470.273,2020-12-02T14:47:58Z
2020-12-02T12:50:04Z,42.805,6.029,13.2985,4.59987,2470.273,2020-12-02T14:51:02Z
2020-12-02T12:53:07Z,42.805,6.029,13.2984,4.59987,2470.25,2020-12-02T14:54:05Z
2020-12-02T12:56:10Z,42.805,6.029,13.2980,4.59987,2470.273,2020-12-02T14:57:08Z
2020-12-02T12:59:13Z,42.805,6.029,13.2983,4.59987,2470.24,2020-12-02T15:00:11Z
2020-12-02T13:02:16Z,42.805,6.029,13.2986,4.59987,2470.227,2020-12-02T15:03:14Z
2020-12-02T13:05:19Z,42.805,6.029,13.2982,4.59986,2470.264,2020-12-02T15:06:17Z
2020-12-02T13:08:22Z,42.805,6.029,13.2986,4.59987,2470.203,2020-12-02T15:09:20Z
2020-12-02T13:11:26Z,42.805,6.029,13.2985,4.59988,2470.264,2020-12-02T15:12:23Z
2020-12-02T13:14:29Z,42.805,6.029,13.2982,4.59988,2470.227,2020-12-02T15:15:27Z
2020-12-02T13:17:32Z,42.805,6.029,13.2986,4.59987,2470.213,2020-12-02T15:18:30Z
2020-12-02T13:20:35Z,42.805,6.029,13.2983,4.59988,2470.227,2020-12-02T15:21:33Z
2020-12-02T13:23:38Z,42.805,6.029,13.2982,4.59988,2470.227,2020-12-02T15:24:36Z
2020-12-02T13:26:41Z,42.805,6.029,13.2984,4.59987,2470.227,2020-12-02T15:27:39Z
2020-12-02T13:29:44Z,42.805,6.029,13.2986,4.59987,2470.26,2020-12-02T15:30:42Z
2020-12-02T13:32:47Z,42.805,6.029,13.2983,4.59986,2470.203,2020-12-02T15:33:45Z
2020-12-02T13:35:51Z,42.805,6.029,13.2983,4.59986,2470.227,2020-12-02T15:36:48Z
2020-12-02T13:38:54Z,42.805,6.029,13.2983,4.59989,2470.217,2020-12-02T15:39:52Z
2020-12-02T13:41:57Z,42.805,6.029,13.2982,4.59986,2470.24,2020-12-02T15:42:55Z
2020-12-02T13:45:00Z,42.805,6.029,13.2981,4.59987,2470.227,2020-12-02T15:45:58Z
2020-12-02T13:48:03Z,42.805,6.029,13.2982,4.59987,2470.264,2020-12-02T15:49:01Z
2020-12-02T13:51:06Z,42.805,6.029,13.2986,4.59987,2470.203,2020-12-02T15:52:04Z
2020-12-02T13:54:09Z,42.805,6.029,13.2982,4.59987,2470.203,2020-12-02T15:55:07Z
2020-12-02T13:57:12Z,42.805,6.029,13.2986,4.59987,2470.217,2020-12-02T15:58:10Z
2020-12-02T14:00:15Z,42.805,6.029,13.2984,4.59988,2470.203,2020-12-02T16:01:13Z
2020-12-02T14:03:19Z,42.805,6.029,13.2985,4.59988,2470.18,2020-12-02T16:04:17Z
2020-12-02T14:06:22Z,42.805,6.029,13.2983,4.59988,2470.213,2020-12-02T16:07:20Z
2020-12-02T14:09:25Z,42.805,6.029,13.2985,4.59988,2470.203,2020-12-02T16:10:23Z
2020-12-02T14:12:28Z,42.805,6.029,13.2987,4.59988,2470.227,2020-12-02T16:13:26Z
2020-12-02T14:15:31Z,42.805,6.029,13.2983,4.59988,2470.227,2020-12-02T16:16:29Z
2020-12-02T14:18:34Z,42.805,6.029,13.2986,4.59987,2470.156,2020-12-02T16:19:32Z
2020-12-02T14:21:37Z,42.805,6.029,13.2979,4.59987,2470.217,2020-12-02T16:22:35Z
2020-12-02T14:24:40Z,42.805,6.029,13.2982,4.59987,2470.24,2020-12-02T16:25:38Z
2020-12-02T14:27:44Z,42.805,6.029,13.2984,4.59987,2470.217,2020-12-02T16:28:41Z
2020-12-02T14:30:47Z,42.805,6.029,13.2985,4.59988,2470.203,2020-12-02T16:31:45Z
2020-12-02T14:33:50Z,42.805,6.029,13.2983,4.59987,2470.227,2020-12-02T16:34:48Z
2020-12-02T14:36:53Z,42.805,6.029,13.2984,4.59987,2470.203,2020-12-02T16:37:51Z
2020-12-02T14:39:56Z,42.805,6.029,13.2982,4.59987,2470.203,2020-12-02T16:40:54Z
2020-12-02T14:42:59Z,42.805,6.029,13.2986,4.59986,2470.227,2020-12-02T16:43:57Z
2020-12-02T14:46:02Z,42.805,6.029,13.2983,4.59988,2470.156,2020-12-02T16:47:00Z
2020-12-02T14:49:05Z,42.805,6.029,13.2985,4.59988,2470.227,2020-12-02T16:50:03Z
2020-12-02T14:52:09Z,42.805,6.029,13.2983,4.59986,2470.194,2020-12-02T16:53:06Z
2020-12-02T14:55:12Z,42.805,6.029,13.2985,4.59987,2470.227,2020-12-02T16:56:10Z
2020-12-02T14:58:15Z,42.805,6.029,13.2982,4.59988,2470.203,2020-12-02T16:59:13Z
2020-12-02T15:01:18Z,42.805,6.029,13.2983,4.59987,2470.217,2020-12-02T17:02:16Z